Location: Newark
(13.6797°N, 8.5297°E)
Time: 18:04:18
(UTC+00:00)

Courier 1B Rocket - Pass Details

Date: 23 January 2020
Orbit: 920 x 1202 km, 28.2° (Epoch: 22 February)

Event Time Altitude Azimuth Distance (km) Brightness Sun altitude
Rises 12:50:42 0° 287° (WNW) 3,838 8.2 52.3°
Reaches altitude 10° 12:54:08 10° 301° (WNW) 2,829 7.5 51.9°
Maximum altitude 12:59:26 23° 352° (N) 1,950 6.6 51.2°
Drops below altitude 10° 13:04:30 10° 44° (NE) 2,683 7.0 50.5°
Sets 13:07:39 0° 58° (ENE) 3,595 7.6 50.1°
